[[{"header":{"parameterUnit":"m.s-1","parameterCategory":1,"la1":30.2991,"la2":30.254,"lo1":-89.0895,"lo2":-89.0444,"dx":0.0017,"dy":0.0017,"nx":28,"ny":28,"refTime":"2023-01-12T15:00:00:Z","depth":0,"parameterNumber":2,"parameterNumberName":"U-component_of_WINDS"},"data":[0,0,0,0,0,0,0,0,0,0,0,0,0,0,0,0,0,0,0,0,0,0,0,0,0,0,0,0,0,0,0,0,0,0,0,0,0,0,0,0,0,0,0,0,0,0,0,0,0,0,0,0,0,0,0,0,0,0,2.7433,2.7433,0,2.7476,2.7476,2.7477,2.7468,2.7468,2.7467,2.7466,2.751,2.7512,2.7514,0,0,0,0,0,0,0,0,0,0,0,0,0,2.7345,2.7347,2.7433,2.7433,2.7434,2.7476,2.7476,2.7477,2.7468,2.7468,2.7467,2.7466,2.7509,2.7512,2.7514,0,0,0,0,0,0,0,0,0,0,0,0,0,2.7385,2.7348,2.7433,2.7435,2.7435,2.7475,2.7476,2.7477,2.7469,2.7468,2.7466,2.7465,2.7509,2.7511,2.7514,2.7555,0,0,2.7523,2.7524,0,0,0,0,0,0,0,0,2.7383,2.7388,2.7434,2.7435,2.7435,2.7465,2.7461,2.7503,2.7469,2.7456,2.7466,2.7465,2.7496,2.75,2.751,2.7557,2.7559,2.7523,2.7525,2.7526,2.7527,0,0,0,0,0,0,0,2.738,2.7387,2.745,2.7435,2.7435,2.7434,2.7438,2.7469,2.7482,2.7457,2.7457,2.7462,2.7496,2.7508,2.7511,2.7559,2.7523,2.7526,2.7527,2.7528,2.7644,2.7645,0,0,0,0,0,0,2.7377,2.7384,2.7448,2.7451,2.7406,2.7437,2.7441,2.7457,2.7482,2.7484,2.7463,2.7461,2.7504,2.7508,2.7513,2.7563,2.7526,2.7529,2.753,2.7642,2.7644,2.7646,0,0,0,0,0,0,2.7375,2.7382,2.7447,2.7418,2.7426,2.7439,2.7457,2.7458,2.747,2.7486,2.7488,2.7472,2.7503,2.7509,2.7545,2.7565,2.753,2.7533,2.7641,2.7643,2.7645,2.7664,0,0,0,0,0,0,2.7372,2.7382,2.7397,2.7418,2.7427,2.7477,2.7458,2.746,2.7475,2.7473,2.7495,2.7498,2.7502,2.7541,2.7548,2.7568,2.7535,2.7639,2.7642,2.7644,2.7661,2.7666,2.767,0,0,0,0,0,2.7369,2.74,2.7398,2.7405,2.7446,2.7478,2.7484,2.7488,2.7476,2.7492,2.7503,2.7497,2.7562,2.7545,2.7552,2.7574,2.7638,2.7641,2.7644,2.7659,2.7665,2.767,0,0,0,0,0,0,2.738,2.7403,2.74,2.7439,2.7457,2.7477,2.7496,2.7494,2.7516,2.7513,2.7518,2.7524,2.7561,2.7571,2.7551,2.7616,2.7598,2.7603,2.7607,2.7613,2.7617,2.7614,2.7537,0,0,0,0,0,2.7387,2.7411,2.743,2.7462,2.7471,2.7482,2.7497,2.7499,2.7518,2.7525,2.7539,2.7557,2.7582,2.7598,2.7622,2.7663,2.7669,2.7682,2.7687,2.769,2.7694,2.7719,2.7725,2.7656,2.7656,2.7656,0,0,2.7401,2.7417,2.7431,2.7464,2.7479,2.7504,2.7489,2.7516,2.7535,2.7529,2.7564,2.7575,2.7597,2.7636,2.7654,2.7646,2.7715,2.7694,2.7697,2.7699,2.7722,2.7729,2.7735,2.7658,2.7657,2.7657,0,0,2.744,2.7454,2.7483,2.7498,2.7521,2.7528,2.7536,2.7557,2.7564,2.7599,2.7596,2.762,2.7661,2.7678,2.7691,2.774,2.7736,2.7747,2.777,2.7794,2.7799,2.7804,2.7822,2.7829,2.7751,2.7751,2.7751,0,2.7455,2.7493,2.7498,2.7526,2.7542,2.7539,2.7569,2.7583,2.7612,2.7623,2.7614,2.7668,2.7682,2.7726,2.7738,2.7749,2.7758,2.7744,2.7798,2.7803,2.7808,2.7825,2.7832,2.7752,2.7752,2.7752,2.7752,0,2.7511,2.7538,2.7558,2.7587,2.7605,2.7634,2.7644,2.7662,2.7663,2.7672,2.771,2.7727,2.7755,2.7766,2.7767,2.7811,2.7805,2.7797,2.7779,2.7816,2.7832,2.7839,2.7754,2.7754,2.7753,2.7753,0,0,2.7556,2.7589,2.7597,2.7611,2.7636,2.7657,2.7687,2.7714,2.773,2.7751,2.7776,2.7813,2.7807,2.7822,2.7826,2.7847,2.7885,2.7836,2.7837,2.7845,2.7936,2.7942,2.7949,2.7883,2.7885,2.7886,2.7934,0,2.7598,2.765,2.7657,2.7703,2.7729,2.7728,2.7754,2.7773,2.7783,2.7807,2.7818,2.7844,2.7833,2.7843,2.7864,2.7876,2.7904,2.7873,2.7908,2.7909,2.7902,2.7958,2.7964,2.8009,2.7941,2.7942,2.7943,0,2.7653,2.7676,2.7726,2.775,2.7761,2.7784,2.7811,2.7833,2.7856,2.7862,2.788,2.7882,2.7914,2.7896,2.7941,2.792,2.7935,2.7943,2.7945,2.7948,2.7928,2.7963,2.8023,2.803,2.7953,2.7952,2.7951,0,2.7682,2.7726,2.7761,2.7773,2.7802,2.7818,2.7831,2.7852,2.7869,2.7893,2.7905,2.7932,2.7947,2.7969,2.7978,2.7964,2.8023,2.8005,2.8029,2.8029,2.8041,2.804,2.8105,2.8051,2.8051,2.8051,2.8051,0,2.7728,2.7758,2.7775,2.7796,2.7831,2.7839,2.7874,2.7886,2.7905,2.793,2.7931,2.7955,2.7966,2.7991,2.7999,2.8036,2.8043,2.8049,2.8051,2.8049,2.8048,2.8058,2.8055,2.8052,2.8052,2.8052,2.8051,0,2.7766,2.7778,2.7817,2.7841,2.7848,2.7873,2.7894,2.7916,2.7927,2.7959,2.7967,2.7984,2.8014,2.8026,2.8063,2.8068,2.8111,2.811,2.8103,2.8103,2.8127,2.8125,2.8201,2.8211,2.815,2.8151,2.8151,0,2.7794,2.7817,2.7845,2.7862,2.7876,2.7903,2.7921,2.7931,2.7949,2.7978,2.7997,2.8027,2.8052,2.8101,2.8117,2.8146,2.8146,2.817,2.815,2.8148,2.8147,2.8145,2.8148,2.8174,2.8174,2.8175,2.8175,0,2.7843,2.7849,2.7874,2.7903,2.7924,2.7946,2.7968,2.7983,2.7996,2.8017,2.8049,2.8068,2.8107,2.8137,2.8168,2.8182,2.8181,2.8182,2.8189,2.8187,2.8183,2.8186,2.8113,2.818,2.8179,2.8179,2.8179,2.8179,2.7878,2.7899,2.7922,2.7951,2.7969,2.7991,2.8013,2.8027,2.8053,2.8086,2.809,2.8124,2.8148,2.8189,2.8205,2.8232,2.8225,2.8236,2.8238,2.8241,2.8243,2.8179,2.8237,2.8237,2.8237,2.8237,2.8237,0,2.7927,2.7943,2.797,2.8001,2.8024,2.8023,2.8048,2.8067,2.8097,2.812,2.8145,2.8182,2.8212,2.8232,2.8263,2.8281,2.8282,2.8289,2.8287,2.8291,2.8246,2.8237,2.8288,2.8288,2.8288,2.8288,2.8288,2.8288,2.7956,2.7993,2.8001,2.8048,2.8063,2.8097,2.8111,2.8132,2.815,2.8191,2.8217,2.8229,2.8251,2.8284,2.8312,2.8318,2.8329,2.8337,2.8341,2.8299,2.8294,2.8289,2.828,2.8339,2.8339,2.8384,2.8384,2.8384]},{"header":{"parameterUnit":"m.s-1","parameterCategory":1,"la1":30.2991,"la2":30.254,"lo1":-89.0895,"lo2":-89.0444,"dx":0.0017,"dy":0.0017,"nx":28,"ny":28,"refTime":"2023-01-12T15:00:00:Z","depth":0,"parameterNumber":3,"parameterNumberName":"V-component_of_WINDS"},"data":[0,0,0,0,0,0,0,0,0,0,0,0,0,0,0,0,0,0,0,0,0,0,0,0,0,0,0,0,0,0,0,0,0,0,0,0,0,0,0,0,0,0,0,0,0,0,0,0,0,0,0,0,0,0,0,0,0,0,-7.256,-7.2562,0,-7.2702,-7.2703,-7.2705,-7.2697,-7.2695,-7.2693,-7.2691,-7.283,-7.2835,-7.2841,0,0,0,0,0,0,0,0,0,0,0,0,0,-7.228,-7.2285,-7.256,-7.2562,-7.2564,-7.2701,-7.2703,-7.2705,-7.2698,-7.2695,-7.2693,-7.2691,-7.2828,-7.2834,-7.2841,0,0,0,0,0,0,0,0,0,0,0,0,0,-7.241,-7.2287,-7.256,-7.2577,-7.258,-7.2701,-7.2703,-7.2706,-7.2698,-7.2695,-7.2692,-7.2689,-7.2826,-7.2834,-7.2842,-7.2954,0,0,-7.2867,-7.2871,0,0,0,0,0,0,0,0,-7.2402,-7.242,-7.2573,-7.2576,-7.2579,-7.2679,-7.2655,-7.2789,-7.2699,-7.2653,-7.2691,-7.2688,-7.2782,-7.2793,-7.2826,-7.296,-7.2966,-7.2868,-7.2873,-7.2877,-7.2879,0,0,0,0,0,0,0,-7.2393,-7.2414,-7.2616,-7.2575,-7.2579,-7.2576,-7.2591,-7.268,-7.2732,-7.2657,-7.2657,-7.2674,-7.2783,-7.2818,-7.2829,-7.2968,-7.2868,-7.2875,-7.288,-7.2884,-7.3203,-7.3206,0,0,0,0,0,0,-7.2381,-7.2406,-7.2611,-7.262,-7.2482,-7.2584,-7.26,-7.265,-7.2731,-7.2741,-7.2676,-7.2673,-7.2805,-7.282,-7.2834,-7.2972,-7.2877,-7.2884,-7.2889,-7.3199,-7.3204,-7.3207,0,0,0,0,0,0,-7.2375,-7.24,-7.2606,-7.2513,-7.2539,-7.2592,-7.2647,-7.2654,-7.269,-7.2746,-7.2755,-7.2703,-7.2804,-7.2822,-7.2925,-7.2977,-7.2888,-7.2896,-7.3195,-7.3201,-7.3206,-7.3247,0,0,0,0,0,0,-7.2367,-7.2398,-7.2441,-7.2515,-7.2544,-7.2696,-7.265,-7.2659,-7.2705,-7.2702,-7.2774,-7.2783,-7.2803,-7.2913,-7.2933,-7.2987,-7.2902,-7.3191,-7.3198,-7.3204,-7.3242,-7.3253,-7.3264,0,0,0,0,0,-7.2357,-7.2445,-7.2444,-7.2468,-7.26,-7.2699,-7.2716,-7.2739,-7.2709,-7.2753,-7.279,-7.278,-7.2968,-7.2923,-7.2946,-7.3003,-7.3188,-7.3196,-7.3203,-7.3237,-7.3251,-7.3263,0,0,0,0,0,0,-7.2374,-7.2455,-7.2454,-7.2569,-7.2627,-7.2697,-7.2753,-7.2753,-7.2819,-7.2813,-7.2837,-7.2854,-7.2957,-7.299,-7.2939,-7.3116,-7.3074,-7.3087,-7.3091,-7.3105,-7.3116,-7.3106,-7.2909,0,0,0,0,0,-7.2392,-7.2466,-7.2532,-7.2627,-7.2657,-7.27,-7.2744,-7.2757,-7.2818,-7.2842,-7.2885,-7.2943,-7.3015,-7.3062,-7.3131,-7.3247,-7.3262,-7.3297,-7.3308,-7.3317,-7.3327,-7.3393,-7.3409,-7.3233,-7.3233,-7.3233,0,0,-7.2427,-7.2481,-7.2526,-7.2632,-7.2679,-7.2755,-7.2721,-7.2802,-7.2858,-7.2853,-7.2954,-7.2988,-7.3054,-7.3164,-7.3215,-7.3195,-7.338,-7.3327,-7.3333,-7.3339,-7.3402,-7.3419,-7.3434,-7.3239,-7.3238,-7.3237,0,0,-7.2532,-7.258,-7.2665,-7.2714,-7.2787,-7.2816,-7.2836,-7.2907,-7.2931,-7.3033,-7.3032,-7.3098,-7.3221,-7.3269,-7.3309,-7.3436,-7.343,-7.3457,-7.3514,-7.3578,-7.3592,-7.3604,-7.3651,-7.3667,-7.3468,-7.3468,-7.3468,0,-7.2567,-7.2683,-7.2709,-7.2792,-7.2839,-7.2841,-7.2928,-7.2973,-7.3063,-7.3095,-7.3072,-7.3229,-7.3273,-7.3396,-7.3427,-7.3459,-7.3483,-7.3449,-7.3588,-7.3601,-7.3613,-7.3657,-7.3674,-7.3471,-7.3471,-7.347,-7.347,0,-7.2723,-7.2804,-7.2864,-7.2955,-7.3008,-7.3092,-7.313,-7.3181,-7.3191,-7.3222,-7.3326,-7.338,-7.3461,-7.3491,-7.3499,-7.3616,-7.3601,-7.3583,-7.3541,-7.3632,-7.3674,-7.3691,-7.3475,-7.3474,-7.3473,-7.3473,0,0,-7.284,-7.2947,-7.2969,-7.3011,-7.3093,-7.3155,-7.324,-7.3322,-7.3366,-7.3429,-7.35,-7.3606,-7.3591,-7.3637,-7.3651,-7.3706,-7.3805,-7.3682,-7.3683,-7.3704,-7.3938,-7.3952,-7.3971,-7.3802,-7.3805,-7.3808,-7.3933,0,-7.2954,-7.3107,-7.3134,-7.3267,-7.3342,-7.3347,-7.3421,-7.3478,-7.351,-7.3577,-7.3611,-7.3687,-7.366,-7.3689,-7.3744,-7.3781,-7.3853,-7.3773,-7.3868,-7.3871,-7.3853,-7.3993,-7.4007,-7.4123,-7.3949,-7.3952,-7.3954,0,-7.3107,-7.3178,-7.3319,-7.3394,-7.3426,-7.3492,-7.3571,-7.3636,-7.3702,-7.3721,-7.3774,-7.3782,-7.387,-7.3824,-7.3945,-7.389,-7.3931,-7.3956,-7.3961,-7.3971,-7.3918,-7.4007,-7.416,-7.4177,-7.398,-7.3978,-7.3976,0,-7.318,-7.331,-7.3412,-7.3448,-7.3537,-7.3584,-7.3623,-7.3686,-7.3734,-7.3803,-7.3835,-7.3911,-7.3953,-7.4012,-7.4041,-7.4004,-7.416,-7.4116,-7.4178,-7.4178,-7.4211,-7.4208,-7.4372,-7.4236,-7.4236,-7.4235,-7.4235,0,-7.3305,-7.3391,-7.3447,-7.351,-7.3607,-7.3637,-7.3732,-7.377,-7.3826,-7.3896,-7.3903,-7.3968,-7.4002,-7.4071,-7.4094,-7.4192,-7.421,-7.4228,-7.4233,-7.4228,-7.4226,-7.4255,-7.4248,-7.424,-7.4239,-7.4238,-7.4237,0,-7.3403,-7.3443,-7.3555,-7.3632,-7.3653,-7.3721,-7.3786,-7.3847,-7.388,-7.3968,-7.399,-7.404,-7.4123,-7.4158,-7.4258,-7.4274,-7.4386,-7.4385,-7.4365,-7.4367,-7.4427,-7.4422,-7.4616,-7.4644,-7.4488,-7.449,-7.4491,0,-7.348,-7.3547,-7.3632,-7.3681,-7.3722,-7.3799,-7.3851,-7.3883,-7.3935,-7.4017,-7.4068,-7.4152,-7.422,-7.4352,-7.4397,-7.4474,-7.4475,-7.4538,-7.4486,-7.448,-7.4477,-7.4473,-7.4481,-7.4547,-7.4549,-7.455,-7.4551,0,-7.3613,-7.3631,-7.3705,-7.3788,-7.3849,-7.3914,-7.3978,-7.4017,-7.4059,-7.4118,-7.4204,-7.4258,-7.4363,-7.4446,-7.4527,-7.4565,-7.4565,-7.4567,-7.4586,-7.4581,-7.4568,-7.4577,-7.4392,-7.4562,-7.4561,-7.456,-7.456,-7.4559,-7.3704,-7.3765,-7.3835,-7.3918,-7.3971,-7.4031,-7.4093,-7.4135,-7.4209,-7.4298,-7.4313,-7.4405,-7.4471,-7.458,-7.4622,-7.4694,-7.4677,-7.4704,-7.4711,-7.4717,-7.4722,-7.4557,-7.4708,-7.4708,-7.4707,-7.4707,-7.4707,0,-7.3838,-7.3885,-7.3961,-7.4053,-7.4118,-7.4116,-7.4187,-7.4242,-7.4324,-7.4386,-7.4455,-7.4555,-7.4636,-7.4689,-7.477,-7.4818,-7.4821,-7.4839,-7.4836,-7.4845,-7.4731,-7.4707,-7.4836,-7.4836,-7.4835,-7.4835,-7.4835,-7.4835,-7.3916,-7.4021,-7.4047,-7.4177,-7.4222,-7.4316,-7.4357,-7.4413,-7.4463,-7.4575,-7.4644,-7.4679,-7.4737,-7.4824,-7.4898,-7.4912,-7.4942,-7.4961,-7.4973,-7.4866,-7.4852,-7.484,-7.4818,-7.4967,-7.4967,-7.5081,-7.5082,-7.5083]}]]